Wind_Speed
34 34 33 32 32 33 33 33 33 34 35 36 36 35 34 34 35 35 35 35 36 37 37 37 38 38 38 38 38 38 38 39 39 40 41 42 43 43 43 43 44 44 45 45
35 35 33 33 34 34 34 35 35 36 37 37 38 37 35 35 36 35 35 35 36 36 36 38 38 38 38 38 38 38 39 39 39 40 42 43 44 44 45 45 45 46 46 47
37 35 34 34 35 35 35 35 35 37 38 38 39 39 36 36 36 36 35 35 36 37 37 38 38 38 38 37 38 39 39 40 40 41 43 44 44 46 46 46 46 47 48 49
37 36 35 35 36 36 36 36 37 38 39 39 39 40 37 36 36 36 36 36 36 36 37 38 38 38 38 38 39 40 40 41 41 42 44 45 46 47 47 48 48 48 48 49
37 37 37 36 36 37 37 37 38 38 39 41 40 42 38 37 37 37 37 37 37 37 38 38 39 39 39 39 39 40 41 42 43 44 45 46 47 47 48 48 49 49 49 50
38 38 37 37 37 38 38 38 38 39 41 43 40 42 41 38 37 37 37 37 38 38 38 39 39 40 40 40 40 41 42 43 43 44 45 46 47 47 48 48 49 50 50 50
38 39 38 38 38 38 38 37 39 41 42 43 41 42 41 38 38 38 37 38 38 38 38 39 39 40 40 41 42 42 43 43 43 45 46 46 47 48 49 49 50 51 52 51
39 39 39 39 39 38 39 38 39 41 42 42 42 42 41 39 39 38 38 39 39 39 39 39 40 40 41 41 43 43 44 44 45 46 47 48 48 49 49 50 50 51 51 51
40 41 40 40 39 40 39 39 39 41 42 43 43 42 41 39 38 38 38 38 38 39 39 40 41 41 42 42 43 44 45 45 46 47 47 48 48 48 49 49 50 50 50 50
41 42 43 42 41 40 39 38 39 41 42 43 43 42 41 39 39 38 38 39 38 39 40 40 40 41 42 43 44 45 45 46 46 46 47 47 47 48 48 49 49 50 50 50
41 43 43 43 42 39 39 39 40 41 42 43 43 42 40 40 39 38 38 39 39 41 41 41 41 42 43 44 44 45 45 46 46 46 46 47 48 48 48 49 49 49 49 49
41 43 44 43 42 40 41 40 40 41 42 42 43 44 41 40 39 39 39 39 40 41 41 41 41 42 43 44 44 45 45 45 45 46 46 47 47 47 48 48 48 48 49 49
41 42 42 42 42 41 41 41 41 42 43 44 44 44 41 40 40 40 40 40 41 41 41 42 42 43 44 45 45 44 45 45 45 46 46 46 46 46 47 47 47 48 49 49
41 42 41 41 41 40 40 40 42 44 45 45 44 43 41 40 40 41 41 41 41 41 42 42 43 44 45 45 44 44 44 44 44 44 45 45 45 45 46 46 47 48 49 50
42 42 41 41 41 42 42 41 42 44 44 45 43 42 40 40 40 41 42 43 43 44 43 43 43 44 44 43 43 44 44 44 44 44 43 43 44 44 44 45 47 48 49 49
43 43 42 42 41 43 44 43 43 43 44 44 44 42 40 40 41 42 43 43 44 44 44 44 44 43 43 43 43 43 43 43 42 43 43 43 44 44 44 45 47 48 48 48
42 43 43 43 42 44 46 42 42 42 42 43 44 43 41 41 41 42 43 44 44 44 43 43 42 42 42 42 42 42 42 42 42 43 43 43 44 44 45 45 46 47 47 48
42 42 43 44 44 47 43 41 41 41 41 41 42 42 42 42 42 42 44 44 44 43 42 41 42 42 42 42 42 42 42 42 43 43 44 44 44 44 45 46 47 48 48 49
41 41 43 44 45 46 42 40 40 40 40 40 41 41 41 42 42 42 42 42 42 42 41 41 42 41 41 41 40 41 41 42 42 42 43 44 45 45 45 46 47 49 49 49
39 40 41 42 43 44 41 39 39 40 41 39 39 40 40 41 42 41 41 41 41 40 40 41 41 41 40 40 40 40 40 41 41 42 43 44 45 45 45 46 47 47 47 47
38 39 40 41 42 42 40 39 40 41 40 39 39 39 39 40 40 40 40 39 39 39 40 40 41 41 39 39 39 40 41 42 42 43 43 44 44 45 45 45 46 47 47 47
36 38 38 39 41 40 39 40 41 41 40 40 39 39 38 38 38 38 38 38 38 39 39 40 40 39 39 40 40 40 41 42 42 43 43 43 44 44 44 45 45 46 46 46
36 35 35 36 38 38 39 40 40 40 40 39 39 38 38 37 37 37 37 38 38 38 38 39 39 39 40 40 40 40 41 42 42 42 42 43 43 44 44 45 45 45 46 45
36 36 36 36 36 37 39 40 40 40 40 40 40 39 38 38 37 37 38 38 38 38 38 38 38 38 39 40 40 41 42 42 42 42 42 42 42 43 44 44 44 44 44 43
35 36 38 38 38 39 39 38 38 39 40 40 39 38 38 38 38 38 38 38 38 38 38 38 38 38 39 40 41 41 41 41 41 42 42 41 42 42 43 43 43 42 41 42
36 37 37 37 36 38 38 39 39 40 40 39 39 39 38 38 39 39 38 38 38 38 38 39 39 39 39 40 40 41 41 41 41 42 42 42 42 42 41 41 40 39 39 38
Wind_Direction
248 250 252 254 256 257 259 261 262 263 263 264 265 267 268 269 270 271 273 273 273 274 275 275 275 275 275 275 276 276 277 275 273 270 268 266 266 266 266 266 266 268 269 270
248 250 253 255 255 257 259 261 262 264 265 265 266 267 268 269 271 272 273 273 274 275 275 276 275 275 275 275 275 275 276 275 274 272 270 268 267 267 266 266 267 269 270 271
251 252 253 255 255 257 259 261 263 265 266 266 267 268 268 269 270 272 273 274 274 275 277 277 276 274 274 274 275 275 275 275 275 274 272 270 269 268 267 267 268 270 271 272
252 253 254 255 256 258 259 261 263 264 266 267 268 269 268 269 270 272 274 275 276 276 276 276 275 274 274 274 274 275 275 275 275 275 274 273 271 269 268 268 268 270 272 273
253 253 254 255 256 257 259 261 263 264 266 267 268 270 270 271 271 272 274 276 276 277 278 277 276 275 274 273 274 275 276 276 276 276 275 274 273 272 270 269 270 271 274 275
254 255 255 254 255 257 259 260 262 263 265 266 269 272 272 272 274 274 274 275 276 276 277 277 276 275 274 274 274 275 276 277 277 276 276 275 274 273 273 272 271 272 274 276
255 255 255 254 255 257 258 259 262 264 265 268 271 271 272 274 275 276 275 275 275 276 276 277 277 276 275 275 275 275 275 277 278 277 276 276 275 275 275 274 273 274 275 276
255 255 255 255 256 258 258 258 261 265 268 270 270 271 273 275 276 277 276 276 276 276 277 277 276 276 276 276 276 276 276 277 278 278 278 277 276 276 276 276 275 275 275 275
256 257 256 256 258 258 257 258 260 263 265 268 269 272 274 275 276 276 277 277 277 277 278 278 277 277 277 277 277 276 277 278 279 278 278 278 277 278 278 277 276 276 276 276
256 258 257 256 257 257 258 259 260 261 264 267 270 272 274 275 277 278 278 279 279 278 277 279 279 278 277 278 277 277 278 279 279 279 278 278 278 278 278 277 276 276 277 277
255 257 258 257 256 257 258 257 258 261 263 267 270 273 276 277 278 279 280 280 280 280 280 280 280 279 279 280 279 279 279 279 279 279 279 278 278 278 277 277 277 276 276 276
254 255 258 258 257 257 257 257 258 259 263 266 270 272 275 277 278 279 280 280 280 281 281 281 281 280 280 281 280 280 280 280 280 280 280 280 279 279 278 278 277 276 277 277
253 255 258 258 257 257 258 257 258 259 262 264 268 273 275 277 278 278 278 279 280 282 282 281 280 280 281 281 281 281 281 282 282 282 281 280 280 279 279 278 277 277 278 278
252 255 256 259 260 259 258 259 259 260 262 265 268 272 273 275 275 276 277 278 279 281 282 282 281 281 281 281 281 281 282 282 282 283 282 281 281 281 280 279 278 279 279 279
251 254 255 256 258 259 259 259 260 261 263 265 268 270 272 274 275 275 276 278 279 281 281 282 282 282 282 281 281 282 282 282 282 283 283 283 283 282 281 281 280 280 280 280
251 253 254 255 257 259 260 260 261 263 266 267 268 269 272 273 274 275 276 278 280 281 282 282 282 281 281 281 282 283 283 283 283 283 284 284 284 283 282 282 281 281 281 281
251 252 253 255 257 259 260 263 264 266 266 267 269 271 271 271 272 275 277 279 281 282 281 281 282 283 282 282 282 283 283 283 283 283 284 285 285 284 284 284 283 283 284 284
253 253 254 256 257 258 263 263 264 267 267 268 269 270 271 272 272 274 276 278 280 281 282 282 282 282 283 282 282 283 284 284 284 285 285 285 286 286 285 285 285 284 285 285
253 254 255 258 260 262 263 264 265 267 268 268 270 271 272 273 274 275 277 279 280 281 282 282 282 282 283 282 283 284 284 285 286 286 286 287 286 286 286 286 286 286 286 285
251 253 255 258 260 263 266 266 266 267 269 270 271 271 272 273 274 275 276 278 279 279 280 281 282 283 283 282 283 284 285 287 287 288 288 288 288 287 288 288 288 287 286 286
252 254 256 258 261 263 265 267 268 269 272 271 272 273 273 274 275 276 277 278 278 278 280 281 282 283 283 283 284 285 286 288 289 289 289 289 289 289 290 291 290 289 289 288
253 254 255 258 260 263 265 266 268 270 270 271 272 273 273 274 275 277 278 279 279 280 280 281 281 281 282 284 285 286 287 289 290 290 290 290 291 291 291 291 291 291 290 290
250 253 255 257 259 262 263 265 267 268 269 271 272 272 273 274 275 277 279 280 280 281 280 281 282 282 284 285 286 288 289 290 291 291 291 291 292 292 292 292 292 291 290 290
250 252 255 256 257 259 262 264 265 266 267 269 271 272 271 273 275 277 279 279 280 280 281 281 282 283 284 286 288 290 291 291 291 292 292 292 293 294 294 294 293 292 290 290
253 254 255 257 259 259 259 260 262 263 266 269 270 271 272 274 276 277 278 278 278 278 279 281 283 284 285 286 289 290 290 290 291 292 293 293 294 294 295 295 294 293 291 291
252 255 256 255 256 257 258 259 261 263 266 268 269 271 272 274 276 277 277 276 277 278 280 282 283 284 285 287 288 289 290 291 292 292 293 294 295 295 295 295 295 294 293 292
Height
5710 5713 5715 5718 5719 5721 5722 5723 5724 5725 5725 5725 5726 5728 5730 5729 5729 5729 5728 5727 5727 5727 5727 5727 5727 5727 5727 5727 5727 5726 5726 5725 5725 5726 5727 5728 5731 5732 5734 5735 5736 5737 5737 5737
5703 5706 5709 5710 5711 5712 5713 5714 5716 5717 5717 5717 5718 5719 5721 5721 5721 5721 5720 5719 5718 5718 5718 5718 5718 5718 5718 5718 5718 5717 5717 5717 5716 5717 5718 5719 5721 5722 5723 5724 5724 5725 5725 5725
5695 5699 5701 5702 5703 5704 5705 5707 5708 5708 5708 5709 5709 5710 5713 5713 5712 5712 5712 5711 5710 5710 5709 5709 5709 5709 5709 5709 5709 5709 5708 5708 5708 5708 5708 5709 5709 5710 5711 5712 5713 5713 5713 5712
5686 5690 5692 5693 5695 5696 5697 5698 5699 5699 5699 5700 5701 5699 5704 5704 5704 5704 5703 5702 5702 5701 5701 5700 5700 5700 5700 5700 5700 5700 5699 5699 5698 5698 5698 5698 5698 5698 5699 5700 5701 5700 5699 5699
5678 5681 5683 5685 5687 5688 5689 5690 5690 5690 5690 5690 5692 5690 5695 5695 5695 5695 5694 5693 5693 5692 5692 5691 5691 5691 5691 5690 5691 5690 5690 5689 5688 5688 5687 5687 5686 5687 5687 5687 5687 5687 5687 5686
5669 5671 5673 5676 5678 5679 5680 5681 5681 5681 5680 5681 5684 5682 5684 5686 5685 5685 5685 5684 5683 5683 5682 5682 5682 5682 5682 5682 5681 5680 5680 5679 5678 5677 5676 5675 5675 5675 5675 5675 5675 5674 5674 5673
5660 5662 5664 5667 5669 5670 5671 5673 5672 5671 5671 5673 5675 5673 5675 5677 5676 5675 5675 5675 5674 5674 5673 5673 5672 5672 5672 5672 5671 5670 5669 5669 5667 5666 5665 5664 5664 5663 5662 5662 5662 5661 5660 5659
5650 5653 5655 5658 5660 5661 5663 5664 5665 5664 5663 5664 5665 5664 5667 5668 5667 5666 5665 5664 5664 5664 5663 5663 5663 5663 5662 5662 5661 5660 5659 5658 5657 5655 5653 5652 5651 5650 5649 5648 5648 5647 5646 5646
5641 5643 5646 5648 5650 5652 5653 5654 5656 5655 5654 5653 5655 5657 5658 5658 5658 5657 5656 5655 5654 5654 5653 5653 5653 5652 5652 5651 5650 5649 5648 5647 5645 5643 5642 5640 5639 5637 5636 5635 5634 5633 5632 5632
5631 5633 5636 5638 5640 5642 5644 5645 5646 5645 5644 5644 5646 5648 5649 5649 5649 5648 5647 5645 5645 5645 5644 5644 5643 5642 5641 5640 5639 5638 5637 5635 5633 5632 5630 5628 5627 5625 5623 5622 5621 5620 5619 5618
5622 5623 5625 5628 5631 5634 5635 5637 5636 5636 5636 5636 5636 5641 5641 5640 5639 5639 5638 5637 5636 5635 5634 5633 5633 5632 5631 5629 5628 5626 5625 5623 5621 5619 5617 5616 5614 5612 5610 5609 5608 5607 5606 5605
5612 5613 5614 5618 5622 5623 5625 5627 5628 5629 5628 5628 5627 5632 5632 5631 5630 5630 5629 5628 5626 5625 5625 5624 5623 5622 5620 5619 5617 5615 5613 5611 5609 5607 5605 5603 5601 5600 5598 5596 5595 5594 5593 5592
5601 5603 5605 5607 5612 5614 5615 5617 5618 5618 5618 5618 5618 5623 5623 5622 5621 5620 5619 5618 5617 5616 5615 5614 5613 5612 5610 5608 5606 5604 5602 5600 5597 5595 5593 5591 5589 5587 5586 5584 5583 5582 5580 5579
5590 5592 5596 5599 5600 5602 5604 5607 5607 5608 5608 5608 5610 5612 5613 5612 5611 5610 5609 5608 5607 5606 5605 5604 5602 5601 5599 5597 5595 5593 5591 5588 5586 5584 5581 5579 5577 5575 5573 5572 5570 5569 5568 5566
5580 5582 5585 5588 5590 5591 5593 5596 5597 5598 5598 5599 5601 5601 5604 5602 5600 5600 5598 5597 5597 5596 5594 5593 5592 5590 5588 5586 5584 5582 5579 5577 5575 5573 5570 5568 5566 5563 5561 5560 5558 5557 5555 5553
5569 5572 5574 5577 5579 5579 5581 5585 5587 5587 5588 5588 5589 5591 5594 5591 5590 5589 5588 5587 5586 5585 5583 5582 5580 5579 5577 5575 5573 5570 5568 5566 5564 5562 5559 5557 5555 5552 5550 5548 5546 5544 5543 5540
5559 5562 5563 5566 5569 5567 5570 5576 5577 5577 5578 5578 5578 5582 5581 5580 5580 5579 5577 5576 5575 5574 5572 5571 5569 5567 5565 5563 5561 5559 5557 5555 5553 5551 5548 5545 5543 5541 5539 5536 5534 5532 5530 5527
5549 5551 5552 5554 5556 5556 5565 5566 5566 5566 5567 5568 5568 5569 5569 5569 5568 5568 5567 5565 5564 5563 5561 5560 5558 5556 5554 5552 5550 5548 5546 5544 5542 5539 5537 5534 5532 5529 5527 5524 5521 5519 5516 5513
5539 5541 5542 5543 5544 5546 5552 5555 5555 5555 5556 5558 5557 5558 5558 5557 5557 5557 5556 5554 5553 5552 5551 5549 5547 5545 5543 5541 5540 5538 5536 5533 5531 5528 5525 5523 5520 5517 5514 5511 5508 5505 5503 5500
5529 5530 5532 5533 5534 5536 5542 5544 5544 5545 5546 5548 5547 5546 5546 5546 5546 5547 5545 5544 5543 5542 5540 5538 5536 5534 5532 5531 5529 5527 5525 5522 5519 5517 5514 5511 5508 5505 5502 5499 5495 5492 5489 5487
5519 5520 5522 5523 5523 5525 5531 5532 5533 5535 5537 5536 5536 5535 5535 5535 5535 5535 5534 5533 5532 5531 5529 5527 5526 5524 5522 5520 5518 5516 5514 5511 5508 5505 5502 5499 5496 5493 5489 5486 5483 5480 5477 5474
5509 5511 5513 5514 5514 5519 5521 5521 5522 5523 5524 5524 5524 5524 5524 5524 5524 5524 5523 5522 5521 5520 5518 5517 5515 5513 5511 5509 5507 5505 5503 5500 5497 5494 5491 5488 5484 5480 5477 5474 5470 5467 5464 5461
5498 5501 5502 5505 5508 5509 5509 5510 5510 5511 5513 5513 5513 5514 5514 5514 5514 5513 5513 5512 5510 5509 5508 5506 5504 5503 5501 5499 5497 5494 5492 5489 5486 5483 5480 5476 5473 5469 5465 5462 5458 5455 5451 5448
5488 5490 5492 5494 5496 5498 5498 5499 5500 5501 5502 5502 5503 5503 5504 5503 5503 5503 5502 5501 5500 5499 5497 5496 5494 5493 5490 5488 5485 5483 5480 5477 5474 5471 5468 5465 5461 5458 5454 5450 5446 5442 5439 5436
5478 5480 5481 5483 5485 5486 5488 5489 5490 5490 5491 5492 5492 5493 5493 5492 5493 5492 5491 5490 5489 5488 5487 5485 5484 5482 5480 5477 5475 5472 5469 5466 5463 5460 5457 5453 5450 5446 5443 5438 5434 5430 5427 5423
5469 5470 5471 5473 5474 5475 5477 5478 5479 5480 5481 5481 5482 5482 5482 5482 5482 5481 5481 5480 5479 5478 5476 5475 5473 5471 5469 5466 5464 5460 5457 5455 5452 5449 5446 5442 5439 5435 5431 5428 5424 5419 5416 5413